Regional Weather Roundup
Issued by NWS

Home | Current Version | Previous Version | Graphics & Text | Print | Product List | Glossary On
Versions: 1 2 3 4 5 6 7 8 9 10 11 12 13 14 15 16 17 18 19 20 21 22 23 24 25 26 27 28 29 30 31 32 33 34 35 36 37 38 39 40 41 42 43 44 45 46 47 48 49 50
146
ASUS43 KIND 281259
RWRIN

WEATHER ROUNDUP FOR INDIANA
NATIONAL WEATHER SERVICE INDIANAPOLIS IN
900 AM EDT FRI APR 28 2017

NOTE: "FAIR" INDICATES FEW OR NO CLOUDS BELOW 12,000 FEET WITH NO
SIGNIFICANT WEATHER AND/OR OBSTRUCTIONS TO VISIBILITY.

* - STATION DOES NOT REPORT WEATHER SUCH AS PRECIPITATION OR FOG.

+ - STATION NOT QUALITY CONTROLLED BY THE NATIONAL WEATHER SERVICE.
    USE DATA WITH CAUTION...ESPECIALLY DEWPOINT AND RELATIVE
    HUMIDITY OBSERVATIONS.

INZ001>003-010>013-019-020-281400-
NORTHWEST INDIANA

CITY           SKY/WX    TMP DP  RH WIND       PRES   REMARKS
GARY /AIRPORT/ MOSUNNY   50  43  76 CALM      29.95S
MONTICELLO +   MOSUNNY   50  43  78 S6        29.97S
RENSSELAER +   MOSUNNY   50  45  81 S8        29.97R

$$

LMZ046-743>745-281400-
SOUTHERN LAKE MICHIGAN

STATION/POSITION TIME  TEMP    WIND        PRES    WAVE
                       AIR SEA DIR/SP/G            HT
                 (UTC) (F)     (DEG/KT/KT) (MB)    (FT)
BURNS HARBOR     1240   48        CALM     1014.9R
MICHIGAN CITY    1230   46     200/  3/  4   N/A
5NW MICH CITY    1250   47 46                N/A     1

$$

INZ004-005-014>016-021>024-281400-
NORTH CENTRAL INDIANA

CITY           SKY/WX    TMP DP  RH WIND       PRES   REMARKS
ELKHART        SUNNY     50  41  71 S5        29.96R
GOSHEN         MOSUNNY   50  40  68 S10       29.96R
SOUTH BEND     SUNNY     49  42  77 SW8       29.97R

$$

INZ006>009-017-018-025>027-281400-
NORTHEAST INDIANA

CITY           SKY/WX    TMP DP  RH WIND       PRES   REMARKS
ANGOLA *+      SUNNY     48  43  81 S8        29.98R
FORT WAYNE     CLOUDY    49  43  80 S8        30.00S
KENDALLVILLE + MOSUNNY   48  41  75 S8        29.98S

$$

INZ028-029-035-036-043>045-051>053-281400-
WEST CENTRAL INDIANA

CITY           SKY/WX    TMP DP  RH WIND       PRES   REMARKS
CRAWFORDSVL +  CLOUDY    47  47 100 SE9       29.96R
GREENCASTLE +  PTSUNNY   46  45  93 E7        29.96F
LAFAYETTE      CLOUDY    48  45  89 E3        29.94F
TERRE HAUTE    CLOUDY    50  45  83 NE8       29.93F

$$

INZ030>032-037>040-046>048-054>057-064-065-281400-
CENTRAL INDIANA

CITY           SKY/WX    TMP DP  RH WIND       PRES   REMARKS
COLUMBUS       MOSUNNY   50  45  81 E7        29.99R
INDIANAPOLIS   CLOUDY    50  45  83 SE9       29.99R
-EAGLE CREEK   CLOUDY    50  44  80 SE5       29.99R
KOKOMO +       MOSUNNY   50  45  83 S9        29.99S
SHELBYVILLE    CLOUDY    52  44  74 SE7       30.01R

$$

INZ033-034-041-042-049-050-058-059-281400-
EAST CENTRAL INDIANA

CITY           SKY/WX    TMP DP  RH WIND       PRES   REMARKS
MUNCIE         CLOUDY    50  43  77 VRB6      30.01R
RICHMOND +     CLOUDY    46  43  87 E12       30.01F

$$

INZ060-061-067>069-081>083-085>088-281400-
SOUTHWEST INDIANA

CITY           SKY/WX    TMP DP  RH WIND       PRES   REMARKS
EVANSVILLE     CLOUDY    54  49  83 E5        29.94R
HUNTINGBURG *+ CLOUDY    52  49  89 E12       29.94F

$$

INZ062-063-066-070>080-084-089>092-281400-
SOUTH CENTRAL AND SOUTHEAST INDIANA

CITY           SKY/WX    TMP DP  RH WIND       PRES   REMARKS
BLOOMINGTON    PTSUNNY   50  44  80 SE9       29.95F
MADISON *+     PTSUNNY   50  46  87 E7        30.02F
SEYMOUR +      CLOUDY    52  48  87 SE6       30.01R

$$





USA.gov is the U.S. government's official web portal to all federal, state and local government web resources and services.